Regional Weather Roundup
Issued by NWS

Home | Current Version | Previous Version | Text Only | Print | Product List | Glossary Off
Versions: 1 2 3 4 5 6 7 8 9 10 11 12 13 14 15 16 17 18 19 20 21 22 23 24 25 26 27 28 29 30 31 32 33 34 35 36 37 38 39 40 41 42 43 44 45 46 47 48 49 50

000
ASUS43 KDMX 091007
RWRIA

WEATHER ROUNDUP FOR IOWA
NATIONAL WEATHER SERVICE DES MOINES IA
500 AM CDT WED JUL 09 2014

NOTE: "FAIR" INDICATES FEW OR NO CLOUDS BELOW 12,000 FEET WITH NO
SIGNIFICANT WEATHER AND/OR OBSTRUCTIONS TO VISIBILITY.

* - THESE STATIONS ARE NOT NWS STATIONS...THUS NOT UNDER NWS
QUALITY CONTROL.  THEY ALSO DO NOT REPORT WEATHER SUCH
AS PRECIPITATION OR FOG.

IAZ001>003-012>014-020>022-031>034-043>046-091100-
   NORTHWEST IOWA

CITY           SKY/WX    TMP DP  RH WIND       PRES   REMARKS
CARROLL *      CLOUDY    54  52  94 CALM      30.02R
CHEROKEE *     CLEAR     55  55 100 CALM      30.02S
DENISON *      CLOUDY    55  55 100 CALM      30.01S
LE MARS *      CLEAR     55  54  94 CALM      30.03R FOG
ORANGE CITY *  CLEAR     59  54  82 NW3       30.02S
SHELDON *      PTCLDY    52  52 100 CALM      30.02R
SIOUX CITY     CLEAR     58  55  90 NW3       30.03R
SPENCER        CLEAR     51  49  92 W6        30.02R
STORM LAKE *   CLEAR     55  54  94 NW6       30.03R
$$

IAZ055>058-069>071-079>083-090>094-091100-
   SOUTHWEST IOWA

CITY           SKY/WX    TMP DP  RH WIND       PRES   REMARKS
ATLANTIC *     CLOUDY    57  55  94 CALM      30.03R
AUDUBON *      CLEAR     55  54  94 CALM      30.04S
CLARINDA *     CLEAR     59  57  94 CALM      30.04S
COUNCIL BLFS * CLEAR     63  59  88 N5        30.03R
CRESTON *      CLEAR     61  57  88 NW5       30.03R
HARLAN  *      CLEAR     55  55 100 CALM      30.06S
LAMONI         CLEAR     62  58  86 N7        30.01R
RED OAK *      CLEAR     59  57  94 CALM      30.03S
SHENANDOAH *   CLEAR     59  57  94 CALM      30.04R
$$

IAZ047>049-059>061-072>074-084-091100-
   CENTRAL IOWA

CITY           SKY/WX    TMP DP  RH WIND       PRES   REMARKS
AMES           CLEAR     59  53  80 NW7       30.00R
ANKENY *       CLEAR     61  55  82 NW6       30.00R
CHARITON *     PTCLDY    61  59  94 W7        30.00S
DES MOINES     PTCLDY    63  56  78 NW6       29.99S
GRINNELL*      CLEAR     57  54  88 W5        29.99R
KNOXVILLE *    CLEAR     61  57  88 W7        29.98R
MARSHALLTOWN   CLEAR     55  53  93 W7        29.98R
PELLA *        CLEAR     59  57  94 NW5       30.00R
PERRY *          N/A     57  55  94 NW5       30.01S
$$

IAZ004>006-015-016-023>025-035-036-091100-
   NORTH CENTRAL IOWA

CITY           SKY/WX    TMP DP  RH WIND       PRES   REMARKS
ALGONA *       CLEAR     55  50  82 NW6       30.00S
CLARION *      CLEAR     54  52  94 NW5       30.00R
ESTHERVILLE    CLEAR     52  48  86 W8        30.00R
FORT DODGE *   CLEAR     55  50  82 CALM      30.01R
MASON CITY     CLEAR     53  50  89 NW6       30.00R
FOREST CITY *  CLEAR     54  50  87 CALM      29.99S
IOWA FALLS *     N/A     54  52  94 W5        30.00R
$$

IAZ007>011-017>019-026>030-037>042-050>054-066-091100-
   NORTHEAST IOWA

CITY           SKY/WX    TMP DP  RH WIND       PRES   REMARKS
CEDAR RAPIDS   CLEAR     56  53  90 NW6       29.95R
CHARLES CITY * CLEAR     54  52  94 CALM      29.98R
CLINTON *      CLEAR     57  54  88 W6        29.94S
DECORAH *        N/A    N/A N/A N/A MISG        N/A
DUBUQUE        CLEAR     57  53  86 NW9       29.93R
MONTICELLO *   CLEAR     54  54 100 CALM      29.93S
OELWEIN *      CLEAR     54  54 100 NW7       29.97R
WATERLOO       CLEAR     56  53  90 W6        29.96R
$$

IAZ064-065-067-068-078-091100-
   EAST CENTRAL IOWA

CITY           SKY/WX    TMP DP  RH WIND       PRES   REMARKS
DAVENPORT      CLEAR     57  55  93 W7        29.93S
IOWA CITY      CLEAR     60  58  92 CALM      29.96R
MT. PLEASANT * MOCLDY    64  61  88 W5        29.96R
MUSCATINE *    CLEAR     63  59  88 NW5       29.94S
QUAD CITIES    CLEAR     60  56  86 SW3       29.92S
$$

IAZ062-063-075>077-085>089-095>099-091100-
   SOUTHEAST IOWA

CITY           SKY/WX    TMP DP  RH WIND       PRES   REMARKS
BURLINGTON     CLEAR     63  60  90 NW7       29.95R
FAIRFIELD *    MOCLDY    61  59  94 W5        29.97R
FORT MADISON * CLEAR     64  61  88 W3        29.96S
KEOKUK *       CLEAR     63  61  94 W6        29.95S
OSKALOOSA *      N/A     61  59  94 NW6       29.98S
CENTERVILLE *  CLEAR     59  59 100 W3        30.01R
OTTUMWA        PTCLDY    61  58  90 W6        29.97R
WASHINGTON *   CLOUDY    61  59  94 W8        29.96R
$$

ABBREVIATIONS USED IN REMARKS
   TC - TEMPERATURES IN CELSIUS
  WCI - WIND CHILL INDEX
   HX - HEAT INDEX
  VSB - VISIBILITY
$$




USA.gov is the U.S. government's official web portal to all federal, state and local government web resources and services.